KL-ALPHA B (44786 NORAD) Tracking and Keplerian Element Data

This shows tracking and keplerian element data for the satellite.

Feedback or suggestion? Click here.




ElementValue
Catalog44786
NameKL-ALPHA B
Epoch Orbit796
Epoch Day17.4440671
Epoch Year2020
RAAN121.9469
Inclination88.9159
Eccentricity0.0256116
Argument of Perigee145.9869
Mean Anonmoly215.7996
Mean Motion13.06051937
Decay Rate-1.55E-06
L11 44786U 19077B 20017.44406710 -.00000155 00000-0 -43593-3 0 9999
L22 44786 88.9159 121.9469 0256116 145.9869 215.7996 13.06051937 7962

Live tracking and technical data element details for KL-ALPHA B (NORAD 44786). KL-ALPHA B can be tracked NOW for your location showing map with azimuth and elevation plus other details from your city location.

Track the satellite on the map from your city or location and see movement details for azimuth, elevation, latitude, longitude, range, height, and movement on the map or in text.







IsCatalogInMostPopularTable: catalog: 44786, numindb: 8
Update: records affected: 1



GetName: 44786 KL-ALPHA B

Hit Count: updated at: Mon, 20 Jan 2020 03:07:22 GMT